Regional Weather Roundup
Issued by NWS Grand Forks, ND

Home | Current Version | Previous Version | Graphics & Text | Print | Product List | Glossary On
Versions: 1 2 3 4 5 6 7 8 9 10 11 12 13 14 15 16 17 18 19 20 21 22 23 24 25 26 27 28 29 30 31 32 33 34 35 36 37 38 39 40 41 42 43 44 45 46 47 48 49 50
000
ASUS43 KFGF 021610
RWRFGF
PRAIRIE TO PINES  WEATHER ROUNDUP
NATIONAL WEATHER SERVICE EASTERN NORTH DAKOTA/GRAND FORKS ND
1000 AM CST FRI DEC 02 2016

 **SATELLITE DATA USED TO AUGMENT SKY COVER AT AUTOMATED STATIONS**
 *****  WEATHER ACROSS EASTERN NORTH DAKOTA  *****

CITY           SKY/WX    TMP DP  RH WIND       PRES   REMARKS
GRAND FORKS    CLOUDY    30  22  72 NW5       30.26R
GRAND FRKS AFB CLOUDY    30  23  75 NE2       30.25R
GRAND FRKS NWS   N/A     28 N/A N/A N1          N/A
DEVILS LAKE    CLOUDY    29  22  75 W5        30.24R WCI  24
FARGO          CLOUDY    29  20  69 N10       30.26R WCI  20
WAHPETON ARPT  CLOUDY    28  21  74 N7        30.27R WCI  21
$$

 ***** WEATHER ACROSS CENTRAL AND WESTERN NORTH DAKOTA  *****

CITY           SKY/WX    TMP DP  RH WIND       PRES   REMARKS
BISMARCK       CLOUDY    24  19  81 E5        30.26R WCI  18
MINOT          FLURRIES  26  21  81 SE5       30.22R WCI  20
JAMESTOWN      CLOUDY    27  20  75 N7        30.24R WCI  19
MINOT AFB      CLOUDY    25  21  85 S6        30.21R WCI  18
GARRISON         N/A     26  22  84 S9        30.22R WCI  17
WILLISTON      CLOUDY    28  23  81 E6        30.17S WCI  22
DICKINSON      CLOUDY    24  22  91 S8        30.15S WCI  15
HETTINGER      CLOUDY    25  22  88 S3        30.19R
$$

 *****  OTHER AIRPORT OBSERVATIONS IN OUR AREA  *****

CITY           SKY/WX    TMP DP  RH WIND       PRES   REMARKS
WALHALLA         N/A     27  27 100 NW3       30.26R
GRAFTON AIRPOR CLOUDY    28  27  93 CALM      30.27R
VALLEY CITY AR CLOUDY    25  23  93 N5        30.27R WCI  19
CANDO          CLOUDY    28  27  93 W5        30.25S WCI  23
CAVALIER APRT    N/A     28  25  86 NW6       30.26R WCI  22
GWINNER        CLOUDY    28  23  80 NW9       30.26R WCI  20
SHEYENNE NWR     N/A     27  20  73 N3        29.95S
ROLLA          CLOUDY    27  23  86 NW6       30.21S WCI  20
 ***** THE ABOVE OBSERVATIONS ARE NON NWS ARE NOT QUALITY
       CONTROLLED AND MAY MIS-REPORT RAIN FOR SNOW...
$$

  *****  WEATHER ACROSS NORTHERN MINNESOTA  *****

CITY           SKY/WX    TMP DP  RH WIND       PRES   REMARKS
FLAG ISLAND    CLOUDY    21  19  93 NW9       30.20R WCI  11
WARROAD        CLOUDY    23  19  86 NW6       30.22R WCI  16
ROSEAU         CLOUDY    27  21  80 CALM      30.22R
HALLOCK        CLOUDY    28  25  86 NW7       30.25R WCI  21
THF RVR FALLS  CLOUDY    26  22  84 NW7       30.24R WCI  18
BAUDETTE       CLOUDY    22  20  92 W6        30.20R WCI  14
WASKISH        CLOUDY    21  19  93 W7        30.21R WCI  13
CROOKSTON      CLOUDY    28  23  80 NW8       30.26R WCI  20
GREENBUSH NDAW   N/A     25  21  86 NW3         N/A
$$
  *****  WEATHER ACROSS CENTRAL AND WEST MINNESOTA  *****

CITY           SKY/WX    TMP DP  RH WIND       PRES   REMARKS
FOSSTON        CLOUDY    23  18  80 NW6       30.23R WCI  16
BEMIDJI        CLOUDY    22  19  89 NW9       30.21R WCI  12
PARK RAPIDS    CLOUDY    24  18  77 NW10      30.20R WCI  14
ELBOW LAKE     CLOUDY    26  21  82 CALM      30.24R
WADENA         CLOUDY    25  19  80 NW6       30.21R WCI  18
DETROIT LAKES  CLOUDY    27  23  86 N8        30.23R WCI  18
MOORHEAD       CLOUDY    27  21  80 NW7       30.27R WCI  19
FERGUS FALLS   CLOUDY    27  21  80 N8        30.28R WCI  18
MORRIS MN      CLOUDY    28  21  74 N8        30.23R WCI  20
STAPLES        CLOUDY    25  19  80 NW6       30.21R WCI  18
$$
  *****  WEATHER ELSEWHERE ACROSS MINNESOTA  *****

CITY           SKY/WX    TMP DP  RH WIND       PRES   REMARKS
DULUTH         CLOUDY    27  22  81 NW10      30.15R WCI  17
INTRNTL FALLS  CLOUDY    26  22  84 W5        30.18R WCI  20
ELY            CLOUDY    21  21 100 NW5       30.16R WCI  15
CLOQUET        CLOUDY    27  21  80 NW5       30.17R WCI  21
WHEATON        NOT AVBL
BRAINERD       CLOUDY    25  20  81 NW7       30.21R WCI  17
HIBBING        CLOUDY    25  21  85 NW9       30.17R WCI  15
ALEXANDRIA     CLOUDY    26  21  81 N8        30.23R WCI  18
SAINT CLOUD    CLOUDY    29  23  78 NW9       30.22R WCI  20
MINNEAPOLIS    CLOUDY    32  22  66 NW8       30.22R WCI  25
$$

  *****  WEATHER ACROSS SOUTH DAKOTA  *****

CITY           SKY/WX    TMP DP  RH WIND       PRES   REMARKS
SIOUX FALLS    CLOUDY    32  28  85 CALM      30.24R
BROOKINGS      CLOUDY    28  25  88 NW5       30.22R WCI  23
WATERTOWN      CLOUDY    26  21  81 N9        30.22R WCI  17
HURON          CLOUDY    29  25  85 N7        30.27R WCI  22
SISSETON         N/A     28  22  78 NE7       30.25R WCI  21
ABERDEEN       FLURRIES  28  21  75 NW6       30.27R WCI  22
MITCHELL       MIX PCPN  31  30  96 CALM      30.27R FOG
PIERRE         CLOUDY    29  26  89 CALM      30.23R
MOBRIDGE       CLOUDY    28  23  81 E6        30.21S WCI  22
RAPID CITY     CLOUDY    32  25  75 NW6       30.17R
$$

  *****  SOME WEATHER IN NEARBY STATES *****

CITY           SKY/WX    TMP DP  RH WIND       PRES   REMARKS
GLASGOW MT     CLOUDY    27  24  89 CALM      30.16R FOG
GREAT FALLS MT CLEAR     24  18  77 S13       30.13S WCI  12
CHEYENNE WY    CLOUDY    26  15  63 NW3       30.14R
SCOTTSBLUFF NE SUNNY     26  19  74 NW7       30.20R WCI  18
OMAHA NE       MOSUNNY   37  29  72 CALM      30.28R
DES MOINES IA  CLOUDY    38  32  79 NW6       30.25R
DAVENPORT IA   CLOUDY    37  32  82 NW14      30.22R
CHICAGO IL     CLOUDY    38  31  76 W8        30.15R
EAU CLAIRE WI  CLOUDY    31  21  66 NW5       30.19R
LA CROSSE WI   CLOUDY    34  22  61 N7        30.21R
$$

  *****  SOME NATIONAL WEATHER *****

CITY           SKY/WX    TMP DP  RH WIND       PRES   REMARKS
LA GUARDIA NY  MOSUNNY   49  31  49 NW16      29.90F
RALEIGH NC     MOSUNNY   52  30  43 VRB3      30.16S
ATLANTA GA     MOSUNNY   52  29  41 NW13      30.27R
NEW ORLEANS LA PTSUNNY   62  41  46 E16       30.23R
OKLAHOMA CITY  PTSUNNY   42  29  59 NW7       30.19R
ALBUQUERQUE NM PTSUNNY   39  23  52 NE12      30.02R
SALT LAKE CITY MOSUNNY   29  24  82 NW3       30.22R
LOS ANGELES CA MOSUNNY   60  18  19 N10       30.01R
BOISE ID       CLEAR     25  19  78 S6        30.37R WCI  18
SEATTLE WA     LGT RAIN  45  42  89 SE14      30.28F
$$

*** WEATHER ACROSS MANITOBA...SASKATCHEWAN AND ONTARIO ***
                ***ONTARIO***

CITY           SKY/WX    TMP DP  RH WIND       PRES   REMARKS
GERALDTON      LGT SNOW  27  25  93 NW9       30.03R WCI  17
THUNDER BAY    PTSUNNY   28  23  80 NW9       30.12R WCI  20
SIOUX LOOKOUT  FRZ DRZL  21  19  93 NW5       30.16R WCI  15
TORONTO        PTSUNNY   41  30  65 W26G36    29.85R
BIG TROUT LK   FRZ RAIN  21  19  93 NW10      30.19  FOG     WCI  10
PICKLE LAKE    FLURRIES  18  16  93 N7        30.14R WCI   8
DRYDEN         CLOUDY    21  19  93 N5        30.16R WCI  15
KENORA         CLOUDY    19  18  93 NW6       30.18R FOG     WCI  11
$$
                *** MANITOBA***

CITY           SKY/WX    TMP DP  RH WIND       PRES   REMARKS
BRANDON        FLURRIES  28  23  80 W5        30.21R WCI  23
DAUPHIN        CLOUDY    25  25 100 VRB2      30.20S FOG
ISLAND LAKE    FLURRIES  14  12  92 S3        30.25R
PILOT MOUND      N/A     27  25  93 SW3         N/A
THE PAS        MOCLDY    16  12  86 CALM      30.20R
THOMPSON       LGT SNOW  18  14  86 VRB2      30.21F
WINNIPEG       CLOUDY    25  21  86 NE2       30.25R
LYNN LAKE      CLOUDY     7   5  92 S3        30.13F
CHURCHILL      FOG        9   7  92 S8        30.24F VSB 1/4 WCI  -4
GILLAM         SNOW      12  10  92 SW6       30.26S VSB 1/2 WCI   3
$$
                ***SASKATCHEWAN***

CITY           SKY/WX    TMP DP  RH WIND       PRES   REMARKS
ESTEVAN        FLURRIES  27  25  93 S8        30.17S WCI  18
KINDERSLEY     CLOUDY    23  21  93 SW6       30.08S WCI  16
LLOYDMINSTER   FOG       21  19  93 S9        30.04S VSB 3/8 WCI  11
PRINCE ALBERT  FRZ DRZL  23  23 100 E2        30.13S FOG
REGINA         FRZ RAIN  25  25 100 W8        30.13R FOG     WCI  16
YORKTON        CLOUDY    28  25  86 S5        30.15S WCI  23
N. BATTLEFORD  CLOUDY    23  23 100 S7        30.12S WCI  15
LA RONGE       FRZ DRZL  25  23  93 SW3       30.10S
SASKATOON      CLOUDY    27  23  86 SW5       30.12F WCI  21
SWIFT CURRENT  CLOUDY    21  19  93 W8        30.06S WCI  12
$$
NOTE: THESE ARE AUTOMATED STATIONS WITH LIMITED QUALITY CONTROL
      "FAIR" INDICATES FEW OR NO CLOUDS BELOW 12,000 FEET WITH NO
      SIGNIFICANT WEATHER AND/OR OBSTRUCTIONS TO VISIBILITY.
      SKY/WX - SKY CONDITION AND SIGNIFICANT WEATHER.
      TMP - AIR TEMPERATURE.    DP   - DEWPOINT TEMPERATURE.
      RH  - RELATIVE HUMIDITY.  PRES - PRESSURE.
      HX  - HEAT INDEX.         WCI  - WIND CHILL INDEX.
$




USA.gov is the U.S. government's official web portal to all federal, state and local government web resources and services.